Location: Huntsville
(41.2590°N, 111.7678°W)
Time: 06:09:02
(UTC+00:00)

Vanguard 3 - Pass Details

Date: 20 June 2021
Orbit: 508 x 3261 km, 33.4° (Epoch: 29 July)

Event Time Altitude Azimuth Distance (km) Brightness Sun altitude
Rises 16:21:06 0° 252° (WSW) 2,640 9.4 47.2°
Reaches altitude 10° 16:23:12 10° 241° (WSW) 1,842 8.8 47.6°
Maximum altitude 16:26:50 32° 176° (S) 1,139 8.5 48.2°
Drops below altitude 10° 16:31:55 10° 114° (ESE) 2,605 10.6 49.2°
Sets 16:35:28 0° 106° (ESE) 3,969 11.3 49.8°
